Погода в Форт-Лодердейл

США     26°08′46″N   80°08′29″W
темп.,
°C
ветер,
м/с
пор.,
м/с
влажн.,
%
обл.,
%
осадки,
мм/ч
давл.,
гПа
погр.,
м
13 августа, сб
сб1323:00+29юв336175 0.3 1017819
02:00+28вюв336489 1.4 1016606
05:00+28юв226732 0.0 1015654
08:00+28юв2266100 0.0 1016702
11:00+32вюв22497 0.0 10171394
14:00+34юв644033 0.0 10162243
17:00+32юв434993 0.1 10141302
20:00+27ю6773100 8.9 1015532
14 августа, вс
вс1423:00+27ююз235797 3.1 1016240
02:00+27ю1159100 3.1 1015182
05:00+27ю235990 0.0 1014231
08:00+27ююв236499 0.0 1015395
11:00+31ююв225199 0.0 10161273
14:00+33юв5445100 0.3 10151947
17:00+32юв445293 0.2 1014887
20:00+30ю545832 0.6 1014743
15 августа, пн
пн1523:00+28зюз346914 1.0 1015362
02:00+28зюз126914 1.1 1014318
05:00+27з1271100 0.7 1014272
08:00+27ююз23695 0.7 1014363
11:00+31ююз22525 0.0 10141257
14:00+34ююв334188 0.5 10142172
17:00+32вюв324993 1.3 1012946
20:00+26с3378100 10.2 1013345
16 августа, вт
вт1623:00+26ююв4577100 26.6 1014256
02:00+27ссз1167100 26.8 1013175
05:00+27сз117059 0.0 1013199
08:00+27з22725 0.0 1014246
11:00+31зсз225418 0.0 10151086
14:00+35ю224027 0.0 10131974
17:00+33юв334896 0.4 10121340
20:00+29юз336595 3.3 1013476
17 августа, ср
ср1723:00+27ю337457 3.0 1014229
02:00+28ююз227083 6.3 1013176
05:00+27зсз22724 0.0 1013222
08:00+28зсз11715 0.0 1015305
11:00+31з225515 0.0 10151269
14:00+35ю224020 0.0 10142161
17:00+34юв434491 0.1 10121345
20:00+31юв5559100 1.4 1013807